Simultaneous Nadir Overpasses (SNOs) Predictions

Prediction of SNOs between GOES-15 and NPP Satellite Orbit:

Table of predicted SNOs for the next 14.0 days since TLE Epoch: 9/14/2024
Index Date Time (GOES-15) GOES-15 Lat,Lon NPP Lat,Lon Distance(km) Time Diff (sec)
1 09/16/2024 09:21:05 -0.35, 61.35 -0.52, 60.66 78.20 80
2 09/17/2024 09:04:59 -0.35, 61.34 0.50, 65.20 440.05 80
3 09/18/2024 21:26:44 0.34, 61.37 0.65, 59.94 162.82 80
4 09/19/2024 21:05:17 0.35, 61.37 -0.38, 64.47 354.51 80
5 09/21/2024 09:27:11 -0.33, 61.34 -0.79, 59.18 245.35 80
6 09/22/2024 09:11:03 -0.34, 61.34 0.19, 63.73 272.47 80
7 09/23/2024 21:32:48 0.32, 61.36 0.98, 58.47 330.00 80
8 09/24/2024 21:11:21 0.32, 61.37 -0.07, 63.00 186.71 80
9 09/26/2024 09:33:13 -0.30, 61.36 -1.12, 57.72 415.44 80
10 09/27/2024 09:17:06 -0.31, 61.36 -0.11, 62.26 102.12 80
